Location: Middlebury
(44.0153°N, 73.1678°W)
Time: 15:07:20
(UTC-04:00)

UWE-3 - Pass Details

Date: 01 July 2024
Orbit: 566 x 652 km, 97.8° (Epoch: 21 July)

Event Time Altitude Azimuth Distance (km) Brightness Sun altitude
Rises 04:14:00 0° 2° (N) 2,832 ? -9.1°
Reaches altitude 10° 04:16:23 10° 351° (N) 1,913 ? -8.8°
Maximum altitude 04:19:56 28° 292° (WNW) 1,089 ? -8.4°
Enters shadow 04:23:24 10° 232° (SW) 1,869 ? -7.9°
